This is the latest recevied weather packets stored in our database for station/object K7SPS-10. If no packets are shown the sender has not sent any weather packets the latest 10 day(s).
| Time | Temp. | Humidity | Pressure | Rain* | Wind** | Luminosity | Snow |
|---|---|---|---|---|---|---|---|
| 1778276029 | 26.11° C | 23% | 1015.5 hPa | 0 mm | - | 794 W/m² | - |
| 1778275724 | 25° C | 24% | 1015.5 hPa | 0 mm | - | 763 W/m² | - |
| 1778275421 | 25.56° C | 23% | 1015.5 hPa | 0 mm | - | 789 W/m² | - |
| 1778275117 | 25.56° C | 23% | 1015.8 hPa | 0 mm | - | 816 W/m² | - |
| 1778274812 | 25° C | 24% | 1015.5 hPa | 0 mm | - | 870 W/m² | - |
| 1778274511 | 25.56° C | 25% | 1015.8 hPa | 0 mm | - | 939 W/m² | - |
| 1778274207 | 25° C | 23% | 1015.8 hPa | 0 mm | - | 1001 W/m² | - |
| 1778273904 | 23.89° C | 23% | 1016.1 hPa | 0 mm | - | 633 W/m² | - |
| 1778273600 | 23.89° C | 24% | 1016 hPa | 0 mm | - | 283 W/m² | - |
| 1778273297 | 23.89° C | 23% | 1015.8 hPa | 0 mm | - | 344 W/m² | - |
| 1778272994 | 23.89° C | 23% | 1015.9 hPa | 0 mm | - | 445 W/m² | - |
| 1778272690 | 23.89° C | 23% | 1016.1 hPa | 0 mm | - | 371 W/m² | - |
| 1778272386 | 23.33° C | 23% | 1015.8 hPa | 0 mm | - | 426 W/m² | - |
| 1778272081 | 23.89° C | 23% | 1016.1 hPa | 0 mm | - | 543 W/m² | - |
| 1778271779 | 23.89° C | 23% | 1016 hPa | 0 mm | - | 537 W/m² | - |
| 1778271476 | 23.89° C | 24% | 1016.5 hPa | 0 mm | - | 399 W/m² | - |
| 1778271173 | 23.89° C | 23% | 1016.3 hPa | 0 mm | - | 451 W/m² | - |
| 1778270869 | 23.89° C | 24% | 1016.2 hPa | 0 mm | - | 392 W/m² | - |
| 1778270566 | 23.89° C | 24% | 1016.2 hPa | 0 mm | - | 438 W/m² | - |
| 1778270262 | 23.33° C | 23% | 1016.3 hPa | 0 mm | - | 409 W/m² | - |
| 1778269958 | 24.44° C | 28% | 1016.2 hPa | 0 mm | - | 445 W/m² | - |
| 1778269655 | 24.44° C | 29% | 1016.3 hPa | 0 mm | - | 499 W/m² | - |
| 1778269352 | 24.44° C | 32% | 1016.3 hPa | 0 mm | - | 794 W/m² | - |
| 1778269049 | 23.89° C | 27% | 1016.3 hPa | 0 mm | - | 602 W/m² | - |
| 1778268746 | 23.89° C | 27% | 1016.1 hPa | 0 mm | - | 746 W/m² | - |
* Rain latest hour (hover to see other rain measurements)
** Current wind speed in m/s (hover to see current wind gust speed)